APRIZESAT 10

Last updated on Sun Jun 21 2026 00:03:42 GMT+0000 (Coordinated Universal Time)

1 40019U 14033K 26171.32393782 .00000346 00000+0 62405-4 0 9992 2 40019 97.9654 298.2134 0077423 263.6442 95.5943 14.70884779642715
UTC large
Height (km)
Speed (km/s)
/
Latitude / Longitude
Inclination (degrees)
Orbital Period (minutes)
Azimuth
Elevation
Range (km)
Doppler Factor

Next 0 passes for location: London (51.5072 / 0.1276)

No passes found over London.
APRIZESAT 10